Simultaneous Nadir Overpasses (SNOs) Predictions

Prediction of SNOs between METOP-A and NOAA-19 Satellite Orbit:

Table of predicted SNOs for the next 14.0 days since TLE Epoch: 1/31/2014
Index Date (METOP-A) Time (METOP-A) Lat,Lon (METOP-A) SZA (METOP-A ) Date (NOAA-19) Time (NOAA-19) Lat,Lon (NOAA-19) SZA (NOAA-19 ) Distance(km) Time Diff (sec)
1 02/05/2014 17:29:23 73.91, -88.30 89.82 02/05/2014 17:28:13 73.89, -88.35 89.82 3.10 70
2 02/05/2014 18:20:05 -73.89, 78.97 90.21 02/05/2014 18:19:09 -73.86, 78.99 90.23 3.24 56
3 02/05/2014 19:10:46 73.84,-113.82 89.74 02/05/2014 19:10:16 73.84,-113.74 89.74 2.31 30
4 02/05/2014 20:01:27 -73.87, 53.57 90.26 02/05/2014 20:01:13 -73.86, 53.47 90.26 2.99 14
5 02/05/2014 20:52:08 73.82,-139.21 89.69 02/05/2014 20:52:20 73.84,-139.26 89.72 2.98 12
6 02/05/2014 21:42:50 -73.79, 28.06 90.34 02/05/2014 21:43:16 -73.81, 28.08 90.33 2.21 26
7 02/05/2014 22:33:30 73.79,-164.61 89.65 02/05/2014 22:34:23 73.79,-164.65 89.64 1.32 53
8 02/05/2014 23:24:12 -73.77, 2.66 90.39 02/05/2014 23:25:19 -73.76, 2.69 90.41 1.14 67




NCC Satellite Simultaneous Nadir Overpasses (SNOs) Prediction Service
